Time,TemperatureF,DewpointF,PressureIn,WindDirection,WindDirectionDegrees,WindSpeedMPH,WindSpeedGustMPH,Humidity,HourlyPrecipIn,Conditions,Clouds,dailyrainin,SoftwareType,DateUTC
2013-07-15 00:01:00,79.0,75.2,30.18,SSE,168,4.0,9.0,88,0.00,,,0.00,meteohub,2013-07-15 04:01:00,
2013-07-15 00:03:00,79.0,75.4,30.18,South,169,3.0,9.0,89,0.00,,,0.00,meteohub,2013-07-15 04:03:00,
2013-07-15 00:08:00,78.6,75.0,30.19,South,170,3.0,9.0,89,0.00,,,0.00,meteohub,2013-07-15 04:08:00,
2013-07-15 00:13:00,78.6,75.0,30.19,South,171,2.0,8.0,89,0.00,,,0.00,meteohub,2013-07-15 04:13:00,
2013-07-15 00:18:00,78.6,75.4,30.19,South,171,0.0,7.0,90,0.00,,,0.00,meteohub,2013-07-15 04:18:00,
2013-07-15 00:23:00,78.6,75.4,30.19,South,171,0.0,6.0,90,0.00,,,0.00,meteohub,2013-07-15 04:23:00,
2013-07-15 00:28:00,78.6,75.4,30.19,South,171,0.0,3.0,90,0.00,,,0.00,meteohub,2013-07-15 04:28:00,
2013-07-15 00:33:00,78.6,75.4,30.19,South,171,0.0,2.0,90,0.00,,,0.00,meteohub,2013-07-15 04:33:00,
2013-07-15 00:38:00,78.6,75.4,30.19,South,171,0.0,2.0,90,0.00,,,0.00,meteohub,2013-07-15 04:38:00,
2013-07-15 00:43:00,78.4,75.2,30.19,South,171,0.0,2.0,90,0.00,,,0.00,meteohub,2013-07-15 04:43:00,
2013-07-15 00:48:00,78.4,75.2,30.19,South,171,0.0,1.0,90,0.00,,,0.00,meteohub,2013-07-15 04:48:00,
2013-07-15 00:53:00,78.4,75.2,30.19,South,171,0.0,1.0,90,0.00,,,0.00,meteohub,2013-07-15 04:53:00,
2013-07-15 00:58:00,78.4,75.2,30.19,South,171,0.0,0.0,90,0.00,,,0.00,meteohub,2013-07-15 04:58:00,
2013-07-15 01:03:00,78.4,75.2,30.18,South,171,0.0,0.0,90,0.00,,,0.00,meteohub,2013-07-15 05:03:00,
2013-07-15 01:08:00,78.3,75.4,30.19,South,171,0.0,0.0,91,0.00,,,0.00,meteohub,2013-07-15 05:08:00,
2013-07-15 01:13:00,78.1,75.2,30.19,South,169,0.0,0.0,91,0.00,,,0.00,meteohub,2013-07-15 05:13:00,
2013-07-15 01:19:00,78.1,74.8,30.19,South,169,0.0,2.0,90,0.00,,,0.00,meteohub,2013-07-15 05:19:00,
2013-07-15 01:24:00,78.3,75.0,30.19,South,169,0.0,2.0,90,0.00,,,0.00,meteohub,2013-07-15 05:24:00,
2013-07-15 01:29:00,78.1,74.8,30.19,South,169,0.0,2.0,90,0.00,,,0.00,meteohub,2013-07-15 05:29:00,
2013-07-15 01:34:00,78.1,74.8,30.19,South,169,0.0,2.0,90,0.00,,,0.00,meteohub,2013-07-15 05:34:00,
2013-07-15 01:39:00,78.1,74.5,30.19,South,169,0.0,0.0,89,0.00,,,0.00,meteohub,2013-07-15 05:39:00,
2013-07-15 01:44:00,78.1,75.2,30.19,South,169,0.0,0.0,91,0.00,,,0.00,meteohub,2013-07-15 05:44:00,
2013-07-15 01:49:00,77.7,74.8,30.19,South,169,0.0,0.0,91,0.00,,,0.00,meteohub,2013-07-15 05:49:00,
2013-07-15 01:54:00,77.2,75.0,30.19,South,169,0.0,0.0,93,0.00,,,0.00,meteohub,2013-07-15 05:54:00,
2013-07-15 01:59:00,76.8,75.0,30.19,South,169,0.0,0.0,94,0.00,,,0.00,meteohub,2013-07-15 05:59:00,
2013-07-15 02:04:00,76.6,74.8,30.19,South,169,0.0,0.0,94,0.00,,,0.00,meteohub,2013-07-15 06:04:00,
2013-07-15 02:09:00,76.6,74.8,30.19,South,169,0.0,0.0,94,0.00,,,0.00,meteohub,2013-07-15 06:09:00,
2013-07-15 02:14:00,76.6,74.5,30.19,South,169,0.0,0.0,93,0.00,,,0.00,meteohub,2013-07-15 06:14:00,
2013-07-15 02:19:00,76.6,74.5,30.19,South,169,0.0,0.0,93,0.00,,,0.00,meteohub,2013-07-15 06:19:00,
2013-07-15 02:24:00,76.6,74.5,30.19,South,169,0.0,0.0,93,0.00,,,0.00,meteohub,2013-07-15 06:24:00,
2013-07-15 02:29:00,76.6,74.5,30.19,South,169,0.0,0.0,93,0.00,,,0.00,meteohub,2013-07-15 06:29:00,
2013-07-15 02:34:00,76.5,74.3,30.19,South,169,0.0,0.0,93,0.00,,,0.00,meteohub,2013-07-15 06:34:00,
2013-07-15 02:39:00,76.5,74.3,30.19,South,169,0.0,0.0,93,0.00,,,0.00,meteohub,2013-07-15 06:39:00,
2013-07-15 02:45:00,76.5,74.3,30.19,South,169,0.0,0.0,93,0.00,,,0.00,meteohub,2013-07-15 06:45:00,
2013-07-15 02:50:00,76.5,74.3,30.19,South,169,0.0,0.0,93,0.00,,,0.00,meteohub,2013-07-15 06:50:00,
2013-07-15 02:55:00,76.5,73.9,30.19,South,169,0.0,0.0,92,0.00,,,0.00,meteohub,2013-07-15 06:55:00,
2013-07-15 03:00:00,76.5,74.3,30.19,South,169,0.0,0.0,93,0.00,,,0.00,meteohub,2013-07-15 07:00:00,
2013-07-15 03:05:00,76.5,74.3,30.19,South,169,0.0,0.0,93,0.00,,,0.00,meteohub,2013-07-15 07:05:00,
2013-07-15 03:10:00,76.3,74.1,30.19,South,169,0.0,0.0,93,0.00,,,0.00,meteohub,2013-07-15 07:10:00,
2013-07-15 03:15:00,75.9,73.8,30.19,South,169,0.0,0.0,93,0.00,,,0.00,meteohub,2013-07-15 07:15:00,
2013-07-15 03:20:00,75.7,73.6,30.19,South,169,0.0,0.0,93,0.00,,,0.00,meteohub,2013-07-15 07:20:00,
2013-07-15 03:25:00,75.7,73.9,30.19,South,169,0.0,0.0,94,0.00,,,0.00,meteohub,2013-07-15 07:25:00,
2013-07-15 03:30:00,75.6,73.8,30.19,South,169,0.0,0.0,94,0.00,,,0.00,meteohub,2013-07-15 07:30:00,
2013-07-15 03:35:00,75.6,73.8,30.19,South,169,0.0,0.0,94,0.00,,,0.00,meteohub,2013-07-15 07:35:00,
2013-07-15 03:40:00,75.7,73.9,30.19,South,169,0.0,0.0,94,0.00,,,0.00,meteohub,2013-07-15 07:40:00,
2013-07-15 03:45:00,75.7,73.9,30.19,South,169,0.0,0.0,94,0.00,,,0.00,meteohub,2013-07-15 07:45:00,
2013-07-15 03:50:00,75.7,73.9,30.19,South,169,0.0,0.0,94,0.00,,,0.00,meteohub,2013-07-15 07:50:00,
2013-07-15 03:55:00,75.6,73.9,30.19,South,169,0.0,0.0,95,0.00,,,0.00,meteohub,2013-07-15 07:55:00,
2013-07-15 04:00:00,75.6,73.8,30.19,South,169,0.0,0.0,94,0.00,,,0.00,meteohub,2013-07-15 08:00:00,
2013-07-15 04:05:00,75.4,73.8,30.19,South,169,0.0,0.0,95,0.00,,,0.00,meteohub,2013-07-15 08:05:00,
2013-07-15 04:10:00,75.4,73.8,30.19,South,169,0.0,0.0,95,0.00,,,0.00,meteohub,2013-07-15 08:10:00,
2013-07-15 04:15:00,75.4,73.8,30.19,South,169,0.0,0.0,95,0.00,,,0.00,meteohub,2013-07-15 08:15:00,
2013-07-15 04:20:00,75.2,73.6,30.20,South,169,0.0,0.0,95,0.00,,,0.00,meteohub,2013-07-15 08:20:00,
2013-07-15 04:25:00,75.2,73.4,30.20,South,169,0.0,0.0,94,0.00,,,0.00,meteohub,2013-07-15 08:25:00,
2013-07-15 04:31:00,75.4,73.6,30.20,South,169,0.0,0.0,94,0.00,,,0.00,meteohub,2013-07-15 08:31:00,
2013-07-15 04:36:00,75.6,73.4,30.20,South,169,0.0,0.0,93,0.00,,,0.00,meteohub,2013-07-15 08:36:00,
2013-07-15 04:41:00,75.7,73.6,30.20,South,169,0.0,0.0,93,0.00,,,0.00,meteohub,2013-07-15 08:41:00,
2013-07-15 04:46:00,75.9,73.4,30.20,South,169,0.0,0.0,92,0.00,,,0.00,meteohub,2013-07-15 08:46:00,
2013-07-15 04:51:00,76.1,73.6,30.20,South,169,0.0,0.0,92,0.00,,,0.00,meteohub,2013-07-15 08:51:00,
2013-07-15 04:56:00,76.5,73.6,30.20,South,170,0.0,0.0,91,0.00,,,0.00,meteohub,2013-07-15 08:56:00,
2013-07-15 05:01:00,76.6,73.4,30.20,South,170,0.0,0.0,90,0.00,,,0.00,meteohub,2013-07-15 09:01:00,
2013-07-15 05:06:00,76.8,73.6,30.20,South,170,0.0,0.0,90,0.00,,,0.00,meteohub,2013-07-15 09:06:00,
2013-07-15 05:11:00,77.0,73.8,30.20,South,170,0.0,0.0,90,0.00,,,0.00,meteohub,2013-07-15 09:11:00,
2013-07-15 05:16:00,77.2,73.8,30.20,South,170,0.0,0.0,89,0.00,,,0.00,meteohub,2013-07-15 09:16:00,
2013-07-15 05:21:00,77.4,73.9,30.20,South,171,0.0,0.0,89,0.00,,,0.00,meteohub,2013-07-15 09:21:00,
2013-07-15 05:26:00,77.4,73.9,30.20,South,171,0.0,0.0,89,0.00,,,0.00,meteohub,2013-07-15 09:26:00,
2013-07-15 05:31:00,77.4,73.9,30.20,South,171,0.0,1.0,89,0.00,,,0.00,meteohub,2013-07-15 09:31:00,
2013-07-15 05:36:00,77.5,73.8,30.20,South,172,0.0,1.0,88,0.00,,,0.00,meteohub,2013-07-15 09:36:00,
2013-07-15 05:41:00,77.5,73.8,30.20,South,172,0.0,1.0,88,0.00,,,0.00,meteohub,2013-07-15 09:41:00,
2013-07-15 05:46:00,77.5,73.8,30.21,South,172,0.0,2.0,88,0.00,,,0.00,meteohub,2013-07-15 09:46:00,
2013-07-15 05:51:00,77.5,73.8,30.21,South,173,3.0,4.0,88,0.00,,,0.00,meteohub,2013-07-15 09:51:00,
2013-07-15 05:56:00,77.7,73.9,30.21,South,183,4.0,6.0,88,0.00,,,0.00,meteohub,2013-07-15 09:56:00,
2013-07-15 06:01:00,77.7,73.6,30.21,South,190,4.0,7.0,87,0.00,,,0.00,meteohub,2013-07-15 10:01:00,
2013-07-15 06:06:00,77.9,73.8,30.21,South,189,5.0,9.0,87,0.00,,,0.00,meteohub,2013-07-15 10:06:00,
2013-07-15 06:11:00,78.1,73.9,30.21,South,183,4.0,9.0,87,0.00,,,0.00,meteohub,2013-07-15 10:11:00,
2013-07-15 06:17:00,78.1,73.9,30.21,South,185,4.0,7.0,87,0.00,,,0.00,meteohub,2013-07-15 10:17:00,
2013-07-15 06:22:00,78.3,74.1,30.21,South,191,4.0,9.0,87,0.00,,,0.00,meteohub,2013-07-15 10:22:00,
2013-07-15 06:27:00,78.3,74.1,30.22,SSW,194,5.0,9.0,87,0.00,,,0.00,meteohub,2013-07-15 10:27:00,
2013-07-15 06:32:00,78.3,74.1,30.22,SSW,194,6.0,9.0,87,0.00,,,0.00,meteohub,2013-07-15 10:32:00,
2013-07-15 06:37:00,78.3,74.1,30.22,SSW,194,7.0,7.0,87,0.00,,,0.00,meteohub,2013-07-15 10:37:00,
2013-07-15 06:42:00,78.3,74.1,30.22,South,188,4.0,7.0,87,0.00,,,0.00,meteohub,2013-07-15 10:42:00,
2013-07-15 06:47:00,78.3,74.1,30.22,SSW,195,7.0,11.0,87,0.00,,,0.00,meteohub,2013-07-15 10:47:00,
2013-07-15 06:52:00,78.3,74.1,30.22,SSW,196,5.0,11.0,87,0.00,,,0.00,meteohub,2013-07-15 10:52:00,
2013-07-15 06:57:00,78.4,74.3,30.22,SSW,195,5.0,9.0,87,0.00,,,0.00,meteohub,2013-07-15 10:57:00,
2013-07-15 07:02:00,78.4,74.3,30.22,SSW,195,6.0,10.0,87,0.00,,,0.00,meteohub,2013-07-15 11:02:00,
2013-07-15 07:07:00,78.6,74.5,30.22,SSW,205,6.0,10.0,87,0.00,,,0.00,meteohub,2013-07-15 11:07:00,
2013-07-15 07:12:00,78.6,74.5,30.22,SSW,207,6.0,10.0,87,0.00,,,0.00,meteohub,2013-07-15 11:12:00,
2013-07-15 07:17:00,78.6,74.5,30.22,South,188,5.0,9.0,87,0.00,,,0.00,meteohub,2013-07-15 11:17:00,
2013-07-15 07:22:00,78.6,74.5,30.22,SSW,192,5.0,10.0,87,0.00,,,0.00,meteohub,2013-07-15 11:22:00,
2013-07-15 07:27:00,78.6,74.5,30.22,SSW,199,5.0,10.0,87,0.00,,,0.00,meteohub,2013-07-15 11:27:00,
2013-07-15 07:32:00,78.6,74.5,30.22,SSW,208,3.0,10.0,87,0.00,,,0.00,meteohub,2013-07-15 11:32:00,
2013-07-15 07:37:00,78.6,74.5,30.22,South,190,5.0,7.0,87,0.00,,,0.00,meteohub,2013-07-15 11:37:00,
2013-07-15 07:42:00,78.8,74.7,30.22,SSW,202,8.0,8.0,87,0.00,,,0.00,meteohub,2013-07-15 11:42:00,
2013-07-15 07:47:00,79.0,74.8,30.23,SW,214,6.0,9.0,87,0.00,,,0.00,meteohub,2013-07-15 11:47:00,
2013-07-15 07:52:00,79.0,74.8,30.23,SSW,202,9.0,11.0,87,0.00,,,0.00,meteohub,2013-07-15 11:52:00,
2013-07-15 07:57:00,79.0,74.8,30.23,SSW,209,6.0,11.0,87,0.00,,,0.00,meteohub,2013-07-15 11:57:00,
2013-07-15 08:02:00,79.2,75.0,30.23,SSW,209,4.0,11.0,87,0.00,,,0.00,meteohub,2013-07-15 12:02:00,
2013-07-15 08:07:00,79.2,75.0,30.23,SW,217,6.0,10.0,87,0.00,,,0.00,meteohub,2013-07-15 12:07:00,
2013-07-15 08:12:00,79.2,75.0,30.23,SSW,208,8.0,10.0,87,0.00,,,0.00,meteohub,2013-07-15 12:12:00,
2013-07-15 08:17:00,79.2,75.0,30.23,SW,221,5.0,11.0,87,0.00,,,0.00,meteohub,2013-07-15 12:17:00,
2013-07-15 08:22:00,79.2,75.0,30.23,SW,219,6.0,11.0,87,0.00,,,0.00,meteohub,2013-07-15 12:22:00,
2013-07-15 08:27:00,79.2,75.0,30.24,SW,223,6.0,11.0,87,0.00,,,0.00,meteohub,2013-07-15 12:27:00,
2013-07-15 08:32:00,79.3,75.2,30.24,SSW,212,6.0,9.0,87,0.00,,,0.00,meteohub,2013-07-15 12:32:00,
2013-07-15 08:37:00,79.3,75.2,30.24,SW,216,5.0,9.0,87,0.00,,,0.00,meteohub,2013-07-15 12:37:00,
2013-07-15 08:42:00,79.5,75.4,30.24,SW,219,8.0,9.0,87,0.00,,,0.00,meteohub,2013-07-15 12:42:00,
2013-07-15 08:47:00,79.5,75.4,30.24,SW,224,5.0,10.0,87,0.00,,,0.00,meteohub,2013-07-15 12:47:00,
2013-07-15 08:52:00,79.9,75.7,30.24,SW,223,4.0,10.0,87,0.00,,,0.00,meteohub,2013-07-15 12:52:00,
2013-07-15 08:57:00,80.1,75.9,30.24,SW,223,7.0,10.0,87,0.00,,,0.00,meteohub,2013-07-15 12:57:00,
2013-07-15 09:02:00,80.1,75.9,30.24,SW,225,4.0,9.0,87,0.00,,,0.00,meteohub,2013-07-15 13:02:00,
2013-07-15 09:07:00,80.4,75.9,30.24,SW,227,7.0,9.0,86,0.00,,,0.00,meteohub,2013-07-15 13:07:00,
2013-07-15 09:12:00,80.8,76.3,30.23,SW,219,6.0,9.0,86,0.00,,,0.00,meteohub,2013-07-15 13:12:00,
2013-07-15 09:17:00,81.0,76.5,30.23,WSW,240,9.0,10.0,86,0.00,,,0.00,meteohub,2013-07-15 13:17:00,
2013-07-15 09:22:00,81.1,76.5,30.23,SW,225,5.0,10.0,86,0.00,,,0.00,meteohub,2013-07-15 13:22:00,
2013-07-15 09:27:00,81.1,76.5,30.23,SW,236,5.0,10.0,86,0.00,,,0.00,meteohub,2013-07-15 13:27:00,
2013-07-15 09:32:00,81.3,77.0,30.23,SW,232,4.0,10.0,87,0.00,,,0.00,meteohub,2013-07-15 13:32:00,
2013-07-15 09:37:00,81.3,76.6,30.23,SW,236,6.0,10.0,86,0.00,,,0.00,meteohub,2013-07-15 13:37:00,
2013-07-15 09:42:00,81.3,76.6,30.23,SW,234,4.0,10.0,86,0.00,,,0.00,meteohub,2013-07-15 13:42:00,
2013-07-15 09:47:00,81.7,76.6,30.23,WSW,245,7.0,9.0,85,0.00,,,0.00,meteohub,2013-07-15 13:47:00,
2013-07-15 09:52:00,81.5,76.5,30.23,SW,230,6.0,10.0,85,0.00,,,0.00,meteohub,2013-07-15 13:52:00,
2013-07-15 09:57:00,81.3,76.6,30.23,SW,232,4.0,10.0,86,0.00,,,0.00,meteohub,2013-07-15 13:57:00,
2013-07-15 10:02:00,81.3,77.0,30.23,SW,235,4.0,10.0,87,0.00,,,0.00,meteohub,2013-07-15 14:02:00,
2013-07-15 10:07:00,81.3,76.6,30.23,SW,236,4.0,9.0,86,0.00,,,0.00,meteohub,2013-07-15 14:07:00,
2013-07-15 10:12:00,81.3,77.4,30.23,SW,236,3.0,7.0,88,0.00,,,0.00,meteohub,2013-07-15 14:12:00,
2013-07-15 10:17:00,81.7,77.4,30.23,WSW,238,4.0,7.0,87,0.00,,,0.00,meteohub,2013-07-15 14:17:00,
2013-07-15 10:22:00,81.3,77.0,30.23,WSW,254,4.0,7.0,87,0.00,,,0.00,meteohub,2013-07-15 14:22:00,
2013-07-15 10:27:00,81.1,77.2,30.23,West,263,6.0,6.0,88,0.00,,,0.00,meteohub,2013-07-15 14:27:00,
2013-07-15 10:32:00,80.8,76.8,30.23,West,273,6.0,7.0,88,0.00,,,0.00,meteohub,2013-07-15 14:32:00,
2013-07-15 10:37:00,80.6,77.0,30.23,West,275,6.0,7.0,89,0.00,,,0.00,meteohub,2013-07-15 14:37:00,
2013-07-15 10:42:00,80.2,77.0,30.23,West,278,5.0,7.0,90,0.00,,,0.00,meteohub,2013-07-15 14:42:00,
2013-07-15 10:47:00,80.1,77.2,30.23,West,278,5.0,7.0,91,0.00,,,0.00,meteohub,2013-07-15 14:47:00,
2013-07-15 10:52:00,80.1,77.2,30.23,West,278,5.0,7.0,91,0.00,,,0.00,meteohub,2013-07-15 14:52:00,
2013-07-15 10:57:00,80.1,77.2,30.23,West,278,7.0,7.0,91,0.00,,,0.00,meteohub,2013-07-15 14:57:00,
2013-07-15 11:02:00,80.4,76.8,30.24,West,277,7.0,8.0,89,0.00,,,0.00,meteohub,2013-07-15 15:02:00,
2013-07-15 11:07:00,81.0,76.6,30.24,West,277,5.0,9.0,87,0.00,,,0.00,meteohub,2013-07-15 15:07:00,
2013-07-15 11:12:00,81.1,76.8,30.24,West,277,5.0,9.0,87,0.00,,,0.00,meteohub,2013-07-15 15:12:00,
2013-07-15 11:18:00,81.3,77.0,30.24,West,279,5.0,9.0,87,0.00,,,0.00,meteohub,2013-07-15 15:18:00,
2013-07-15 11:23:00,81.3,77.0,30.24,West,281,5.0,7.0,87,0.00,,,0.00,meteohub,2013-07-15 15:23:00,
2013-07-15 11:28:00,81.1,76.5,30.24,WNW,291,5.0,7.0,86,0.00,,,0.00,meteohub,2013-07-15 15:28:00,
2013-07-15 11:33:00,81.1,76.8,30.24,WNW,284,7.0,7.0,87,0.00,,,0.00,meteohub,2013-07-15 15:33:00,
2013-07-15 11:38:00,81.0,76.6,30.24,WNW,283,7.0,7.0,87,0.00,,,0.00,meteohub,2013-07-15 15:38:00,
2013-07-15 11:43:00,81.0,76.6,30.24,WNW,282,7.0,9.0,87,0.00,,,0.00,meteohub,2013-07-15 15:43:00,
2013-07-15 11:48:00,81.0,76.6,30.24,West,279,8.0,10.0,87,0.00,,,0.00,meteohub,2013-07-15 15:48:00,
2013-07-15 11:53:00,81.0,77.0,30.24,West,279,7.0,10.0,88,0.00,,,0.00,meteohub,2013-07-15 15:53:00,
2013-07-15 11:58:00,81.0,77.0,30.23,West,279,9.0,10.0,88,0.00,,,0.00,meteohub,2013-07-15 15:58:00,
2013-07-15 12:03:00,81.0,77.0,30.23,West,279,9.0,10.0,88,0.00,,,0.00,meteohub,2013-07-15 16:03:00,
2013-07-15 12:08:00,81.0,76.6,30.23,WNW,283,10.0,11.0,87,0.00,,,0.00,meteohub,2013-07-15 16:08:00,
2013-07-15 12:13:00,80.8,77.2,30.24,WNW,284,10.0,12.0,89,0.00,,,0.00,meteohub,2013-07-15 16:13:00,
2013-07-15 12:18:00,80.4,76.8,30.23,WNW,285,10.0,12.0,89,0.00,,,0.00,meteohub,2013-07-15 16:18:00,
2013-07-15 12:24:00,80.4,76.5,30.23,West,281,10.0,12.0,88,0.00,,,0.00,meteohub,2013-07-15 16:24:00,
2013-07-15 12:29:00,80.4,76.5,30.23,WNW,289,13.0,13.0,88,0.00,,,0.00,meteohub,2013-07-15 16:29:00,
2013-07-15 12:34:00,80.2,76.6,30.23,WNW,286,11.0,13.0,89,0.00,,,0.00,meteohub,2013-07-15 16:34:00,
2013-07-15 12:39:00,80.1,76.8,30.23,WNW,283,7.0,13.0,90,0.00,,,0.00,meteohub,2013-07-15 16:39:00,
2013-07-15 12:44:00,79.9,76.6,30.23,West,279,8.0,13.0,90,0.00,,,0.00,meteohub,2013-07-15 16:44:00,
2013-07-15 12:49:00,79.9,77.0,30.23,WNW,284,9.0,12.0,91,0.00,,,0.00,meteohub,2013-07-15 16:49:00,
2013-07-15 12:54:00,79.5,76.3,30.23,WNW,287,10.0,12.0,90,0.00,,,0.00,meteohub,2013-07-15 16:54:00,
2013-07-15 13:00:00,79.5,76.6,30.23,WNW,298,9.0,12.0,91,0.00,,,0.00,meteohub,2013-07-15 17:00:00,
2013-07-15 13:05:00,79.7,76.5,30.23,WNW,302,11.0,13.0,90,0.00,,,0.00,meteohub,2013-07-15 17:05:00,
2013-07-15 13:11:00,79.7,76.5,30.23,WNW,290,8.0,13.0,90,0.00,,,0.00,meteohub,2013-07-15 17:11:00,
2013-07-15 13:16:00,79.5,76.6,30.22,WNW,289,9.0,13.0,91,0.00,,,0.00,meteohub,2013-07-15 17:16:00,
2013-07-15 13:21:00,79.5,76.3,30.22,WNW,288,12.0,12.0,90,0.00,,,0.00,meteohub,2013-07-15 17:21:00,
2013-07-15 13:26:00,79.5,75.9,30.22,WNW,287,11.0,13.0,89,0.00,,,0.00,meteohub,2013-07-15 17:26:00,
2013-07-15 13:31:00,79.7,76.5,30.22,WNW,291,11.0,13.0,90,0.00,,,0.00,meteohub,2013-07-15 17:31:00,
2013-07-15 13:36:00,79.7,75.7,30.22,WNW,285,13.0,13.0,88,0.00,,,0.00,meteohub,2013-07-15 17:36:00,
2013-07-15 13:41:00,79.9,75.9,30.22,West,279,10.0,13.0,88,0.00,,,0.00,meteohub,2013-07-15 17:41:00,
2013-07-15 13:47:00,79.9,75.9,30.22,West,277,8.0,13.0,88,0.00,,,0.00,meteohub,2013-07-15 17:47:00,
2013-07-15 13:52:00,79.9,75.9,30.22,WNW,282,10.0,13.0,88,0.00,,,0.00,meteohub,2013-07-15 17:52:00,
2013-07-15 13:58:00,79.7,76.5,30.22,West,279,7.0,13.0,90,0.00,,,0.00,meteohub,2013-07-15 17:58:00,
2013-07-15 14:03:00,79.5,75.9,30.22,West,275,10.0,12.0,89,0.00,,,0.00,meteohub,2013-07-15 18:03:00,
2013-07-15 14:08:00,79.3,76.5,30.22,West,279,10.0,13.0,91,0.00,,,0.00,meteohub,2013-07-15 18:08:00,
2013-07-15 14:13:00,79.3,76.5,30.22,West,281,9.0,13.0,91,0.00,,,0.00,meteohub,2013-07-15 18:13:00,
2013-07-15 14:19:00,79.3,76.5,30.22,WNW,295,8.0,13.0,91,0.00,,,0.00,meteohub,2013-07-15 18:19:00,
2013-07-15 14:24:00,79.3,76.5,30.22,West,281,9.0,12.0,91,0.00,,,0.00,meteohub,2013-07-15 18:24:00,
2013-07-15 14:29:00,79.2,76.3,30.22,West,281,10.0,13.0,91,0.00,,,0.00,meteohub,2013-07-15 18:29:00,
2013-07-15 14:34:00,79.0,76.1,30.22,WNW,286,7.0,13.0,91,0.00,,,0.00,meteohub,2013-07-15 18:34:00,
2013-07-15 14:39:00,79.0,76.1,30.22,West,280,10.0,14.0,91,0.00,,,0.00,meteohub,2013-07-15 18:39:00,
2013-07-15 14:44:00,79.2,76.3,30.22,WNW,289,5.0,14.0,91,0.00,,,0.00,meteohub,2013-07-15 18:44:00,
2013-07-15 14:49:00,79.2,76.3,30.22,WNW,299,4.0,11.0,91,0.00,,,0.00,meteohub,2013-07-15 18:49:00,
2013-07-15 14:54:00,79.2,76.3,30.22,WNW,292,4.0,11.0,91,0.00,,,0.00,meteohub,2013-07-15 18:54:00,
2013-07-15 14:59:00,79.2,76.3,30.22,WNW,290,4.0,11.0,91,0.00,,,0.00,meteohub,2013-07-15 18:59:00,
2013-07-15 15:04:00,79.2,76.3,30.22,WNW,293,3.0,11.0,91,0.00,,,0.00,meteohub,2013-07-15 19:04:00,
2013-07-15 15:10:00,79.3,76.5,30.22,WNW,293,4.0,7.0,91,0.00,,,0.00,meteohub,2013-07-15 19:10:00,
2013-07-15 15:15:00,79.5,76.6,30.21,WNW,293,4.0,7.0,91,0.00,,,0.00,meteohub,2013-07-15 19:15:00,
2013-07-15 15:20:00,79.5,76.6,30.21,WNW,294,4.0,7.0,91,0.00,,,0.00,meteohub,2013-07-15 19:20:00,
2013-07-15 15:25:00,79.3,76.5,30.22,WNW,296,6.0,6.0,91,0.00,,,0.00,meteohub,2013-07-15 19:25:00,
2013-07-15 15:30:00,79.2,76.6,30.21,WNW,295,4.0,10.0,92,0.00,,,0.00,meteohub,2013-07-15 19:30:00,
2013-07-15 15:35:00,79.2,76.6,30.22,WNW,294,4.0,10.0,92,0.00,,,0.00,meteohub,2013-07-15 19:35:00,
2013-07-15 15:41:00,79.3,76.8,30.22,WNW,294,4.0,10.0,92,0.00,,,0.00,meteohub,2013-07-15 19:41:00,
2013-07-15 15:46:00,79.3,76.8,30.21,WNW,294,5.0,7.0,92,0.00,,,0.00,meteohub,2013-07-15 19:46:00,
2013-07-15 15:52:00,79.2,76.6,30.21,WNW,292,4.0,7.0,92,0.00,,,0.00,meteohub,2013-07-15 19:52:00,
2013-07-15 15:57:00,79.2,77.0,30.21,NW,312,5.0,9.0,93,0.00,,,0.00,meteohub,2013-07-15 19:57:00,
2013-07-15 16:02:00,79.2,77.0,30.21,NW,312,4.0,9.0,93,0.00,,,0.00,meteohub,2013-07-15 20:02:00,
2013-07-15 16:07:00,79.2,77.0,30.21,WNW,294,4.0,8.0,93,0.00,,,0.00,meteohub,2013-07-15 20:07:00,
2013-07-15 16:12:00,79.0,76.8,30.21,WNW,287,3.0,8.0,93,0.00,,,0.00,meteohub,2013-07-15 20:12:00,
2013-07-15 16:17:00,78.8,76.6,30.21,WNW,287,4.0,7.0,93,0.00,,,0.00,meteohub,2013-07-15 20:17:00,
2013-07-15 16:22:00,79.0,77.2,30.21,WNW,288,2.0,7.0,94,0.00,,,0.00,meteohub,2013-07-15 20:22:00,
2013-07-15 16:27:00,79.5,77.4,30.21,WNW,288,2.0,7.0,93,0.00,,,0.00,meteohub,2013-07-15 20:27:00,
2013-07-15 16:32:00,79.9,77.7,30.20,WNW,288,2.0,6.0,93,0.00,,,0.00,meteohub,2013-07-15 20:32:00,
2013-07-15 16:37:00,79.9,77.4,30.20,WNW,288,4.0,4.0,92,0.00,,,0.00,meteohub,2013-07-15 20:37:00,
2013-07-15 16:42:00,79.5,77.0,30.20,WNW,288,4.0,6.0,92,0.00,,,0.00,meteohub,2013-07-15 20:42:00,
2013-07-15 16:48:00,79.3,77.2,30.20,WNW,288,5.0,6.0,93,0.00,,,0.00,meteohub,2013-07-15 20:48:00,
2013-07-15 16:53:00,79.0,77.2,30.20,WNW,288,5.0,6.0,94,0.00,,,0.00,meteohub,2013-07-15 20:53:00,
2013-07-15 16:58:00,78.6,76.8,30.20,WNW,289,3.0,6.0,94,0.00,,,0.00,meteohub,2013-07-15 20:58:00,
2013-07-15 17:03:00,78.6,76.8,30.20,WNW,289,2.0,6.0,94,0.00,,,0.00,meteohub,2013-07-15 21:03:00,
2013-07-15 17:08:00,78.6,76.8,30.20,WNW,289,0.0,6.0,94,0.00,,,0.00,meteohub,2013-07-15 21:08:00,
2013-07-15 17:13:00,79.0,77.2,30.20,WNW,288,1.0,4.0,94,0.00,,,0.00,meteohub,2013-07-15 21:13:00,
2013-07-15 17:18:00,79.2,77.0,30.20,WNW,289,3.0,4.0,93,0.00,,,0.00,meteohub,2013-07-15 21:18:00,
2013-07-15 17:23:00,79.2,77.0,30.19,WNW,289,0.0,4.0,93,0.00,,,0.00,meteohub,2013-07-15 21:23:00,
2013-07-15 17:28:00,79.2,77.0,30.19,WNW,289,2.0,4.0,93,0.00,,,0.00,meteohub,2013-07-15 21:28:00,
2013-07-15 17:34:00,79.3,77.2,30.19,WNW,289,2.0,4.0,93,0.00,,,0.00,meteohub,2013-07-15 21:34:00,
2013-07-15 17:39:00,79.3,77.2,30.19,WNW,289,1.0,4.0,93,0.00,,,0.00,meteohub,2013-07-15 21:39:00,
2013-07-15 17:44:00,79.5,77.0,30.19,WNW,289,0.0,4.0,92,0.00,,,0.00,meteohub,2013-07-15 21:44:00,
2013-07-15 17:49:00,79.5,77.0,30.19,WNW,289,3.0,3.0,92,0.00,,,0.00,meteohub,2013-07-15 21:49:00,
2013-07-15 17:54:00,79.5,77.4,30.19,WNW,289,4.0,4.0,93,0.00,,,0.00,meteohub,2013-07-15 21:54:00,
2013-07-15 17:59:00,79.3,77.2,30.19,WNW,289,3.0,3.0,93,0.00,,,0.00,meteohub,2013-07-15 21:59:00,
2013-07-15 18:04:00,79.2,77.0,30.19,WNW,289,3.0,4.0,93,0.00,,,0.00,meteohub,2013-07-15 22:04:00,
2013-07-15 18:10:00,79.2,77.0,30.19,WNW,289,2.0,4.0,93,0.00,,,0.00,meteohub,2013-07-15 22:10:00,
2013-07-15 18:15:00,79.0,77.2,30.19,WNW,289,0.0,4.0,94,0.00,,,0.00,meteohub,2013-07-15 22:15:00,
2013-07-15 18:21:00,79.2,77.4,30.19,WNW,289,0.0,3.0,94,0.00,,,0.00,meteohub,2013-07-15 22:21:00,
2013-07-15 18:26:00,79.2,77.4,30.19,WNW,289,2.0,3.0,94,0.00,,,0.00,meteohub,2013-07-15 22:26:00,
2013-07-15 18:31:00,79.2,77.4,30.18,WNW,289,0.0,3.0,94,0.00,,,0.00,meteohub,2013-07-15 22:31:00,
2013-07-15 18:36:00,79.3,77.2,30.18,WNW,289,2.0,3.0,93,0.00,,,0.00,meteohub,2013-07-15 22:36:00,
2013-07-15 18:41:00,79.5,77.4,30.18,WNW,289,0.0,3.0,93,0.00,,,0.00,meteohub,2013-07-15 22:41:00,
2013-07-15 18:46:00,79.9,77.7,30.18,WNW,289,0.0,3.0,93,0.00,,,0.00,meteohub,2013-07-15 22:46:00,
2013-07-15 18:52:00,80.1,77.5,30.18,WNW,289,0.0,3.0,92,0.00,,,0.00,meteohub,2013-07-15 22:52:00,
2013-07-15 18:57:00,80.4,77.5,30.18,WNW,289,0.0,0.0,91,0.00,,,0.00,meteohub,2013-07-15 22:57:00,
2013-07-15 19:02:00,80.4,77.9,30.18,WNW,289,3.0,3.0,92,0.00,,,0.00,meteohub,2013-07-15 23:02:00,
2013-07-15 19:07:00,80.1,77.5,30.18,WNW,289,2.0,3.0,92,0.00,,,0.00,meteohub,2013-07-15 23:07:00,
2013-07-15 19:12:00,79.9,77.4,30.18,WNW,289,3.0,4.0,92,0.00,,,0.00,meteohub,2013-07-15 23:12:00,
2013-07-15 19:17:00,79.5,77.0,30.18,WNW,289,0.0,4.0,92,0.00,,,0.00,meteohub,2013-07-15 23:17:00,
2013-07-15 19:23:00,79.9,77.7,30.18,WNW,289,0.0,4.0,93,0.00,,,0.00,meteohub,2013-07-15 23:23:00,
2013-07-15 19:28:00,80.4,77.9,30.18,WNW,289,0.0,4.0,92,0.00,,,0.00,meteohub,2013-07-15 23:28:00,
2013-07-15 19:33:00,80.6,77.7,30.18,WNW,289,0.0,1.0,91,0.00,,,0.00,meteohub,2013-07-15 23:33:00,
2013-07-15 19:38:00,80.8,77.9,30.18,WNW,289,0.0,0.0,91,0.00,,,0.00,meteohub,2013-07-15 23:38:00,
2013-07-15 19:44:00,80.8,77.9,30.18,WNW,289,0.0,1.0,91,0.00,,,0.00,meteohub,2013-07-15 23:44:00,
2013-07-15 19:49:00,80.8,77.5,30.18,WNW,289,0.0,1.0,90,0.00,,,0.00,meteohub,2013-07-15 23:49:00,
2013-07-15 19:54:00,81.1,77.5,30.18,WNW,289,0.0,1.0,89,0.00,,,0.00,meteohub,2013-07-15 23:54:00,
2013-07-15 20:00:00,81.7,77.7,30.17,WNW,289,0.0,0.0,88,0.00,,,0.00,meteohub,2013-07-16 00:00:00,
2013-07-15 20:05:00,82.0,77.7,30.17,WNW,289,0.0,0.0,87,0.00,,,0.00,meteohub,2013-07-16 00:05:00,
2013-07-15 20:10:00,82.2,77.9,30.18,WNW,289,0.0,0.0,87,0.00,,,0.00,meteohub,2013-07-16 00:10:00,
2013-07-15 20:15:00,82.9,78.6,30.18,WNW,289,0.0,0.0,87,0.00,,,0.00,meteohub,2013-07-16 00:15:00,
2013-07-15 20:20:00,82.9,78.3,30.18,WNW,289,0.0,0.0,86,0.00,,,0.00,meteohub,2013-07-16 00:20:00,
2013-07-15 20:25:00,82.0,77.4,30.18,WNW,289,0.0,0.0,86,0.00,,,0.00,meteohub,2013-07-16 00:25:00,
2013-07-15 20:31:00,81.1,77.2,30.18,WNW,289,2.0,2.0,88,0.00,,,0.00,meteohub,2013-07-16 00:31:00,
2013-07-15 20:37:00,80.4,77.5,30.18,WNW,289,2.0,2.0,91,0.00,,,0.00,meteohub,2013-07-16 00:37:00,
2013-07-15 20:42:00,80.1,77.9,30.17,WNW,289,2.0,3.0,93,0.00,,,0.00,meteohub,2013-07-16 00:42:00,
2013-07-15 20:47:00,79.9,77.7,30.17,WNW,289,3.0,5.0,93,0.00,,,0.00,meteohub,2013-07-16 00:47:00,
2013-07-15 20:52:00,79.9,78.1,30.18,WNW,289,0.0,5.0,94,0.00,,,0.00,meteohub,2013-07-16 00:52:00,
2013-07-15 20:57:00,79.7,77.5,30.18,WNW,289,3.0,5.0,93,0.00,,,0.00,meteohub,2013-07-16 00:57:00,
2013-07-15 21:02:00,79.5,77.4,30.18,WNW,289,3.0,4.0,93,0.00,,,0.00,meteohub,2013-07-16 01:02:00,
2013-07-15 21:07:00,79.5,77.7,30.18,WNW,289,4.0,4.0,94,0.00,,,0.00,meteohub,2013-07-16 01:07:00,
2013-07-15 21:12:00,79.3,77.5,30.18,WNW,289,4.0,5.0,94,0.00,,,0.00,meteohub,2013-07-16 01:12:00,
2013-07-15 21:17:00,79.2,77.4,30.18,WNW,288,4.0,5.0,94,0.00,,,0.00,meteohub,2013-07-16 01:17:00,
2013-07-15 21:22:00,79.2,77.4,30.18,WNW,288,2.0,5.0,94,0.00,,,0.00,meteohub,2013-07-16 01:22:00,
2013-07-15 21:27:00,79.2,77.5,30.18,WNW,288,0.0,5.0,95,0.00,,,0.00,meteohub,2013-07-16 01:27:00,
2013-07-15 21:32:00,79.0,77.4,30.19,WNW,288,3.0,5.0,95,0.00,,,0.00,meteohub,2013-07-16 01:32:00,
2013-07-15 21:38:00,79.0,77.4,30.19,WNW,288,2.0,3.0,95,0.00,,,0.00,meteohub,2013-07-16 01:38:00,
2013-07-15 21:43:00,79.0,77.4,30.19,WNW,288,2.0,3.0,95,0.00,,,0.00,meteohub,2013-07-16 01:43:00,
2013-07-15 21:48:00,79.2,77.5,30.19,WNW,288,2.0,3.0,95,0.00,,,0.00,meteohub,2013-07-16 01:48:00,
2013-07-15 21:53:00,79.0,77.4,30.19,WNW,288,3.0,4.0,95,0.00,,,0.00,meteohub,2013-07-16 01:53:00,
2013-07-15 21:58:00,79.0,77.4,30.19,WNW,288,0.0,4.0,95,0.00,,,0.00,meteohub,2013-07-16 01:58:00,
2013-07-15 22:03:00,79.0,77.4,30.19,WNW,288,0.0,4.0,95,0.00,,,0.00,meteohub,2013-07-16 02:03:00,
2013-07-15 22:08:00,79.0,77.4,30.19,WNW,288,0.0,4.0,95,0.00,,,0.00,meteohub,2013-07-16 02:08:00,
2013-07-15 22:14:00,78.8,77.2,30.19,WNW,288,0.0,2.0,95,0.00,,,0.00,meteohub,2013-07-16 02:14:00,
2013-07-15 22:19:00,79.0,77.4,30.19,WNW,288,0.0,0.0,95,0.00,,,0.00,meteohub,2013-07-16 02:19:00,
2013-07-15 22:25:00,78.8,77.0,30.19,WNW,288,0.0,0.0,94,0.00,,,0.00,meteohub,2013-07-16 02:25:00,
2013-07-15 22:30:00,78.6,76.5,30.19,WNW,288,0.0,0.0,93,0.00,,,0.00,meteohub,2013-07-16 02:30:00,
2013-07-15 22:35:00,78.8,76.6,30.20,WNW,288,0.0,0.0,93,0.00,,,0.00,meteohub,2013-07-16 02:35:00,
2013-07-15 22:40:00,79.0,77.2,30.19,WNW,288,0.0,0.0,94,0.00,,,0.00,meteohub,2013-07-16 02:40:00,
2013-07-15 22:46:00,78.6,76.5,30.19,WNW,288,0.0,0.0,93,0.00,,,0.00,meteohub,2013-07-16 02:46:00,
2013-07-15 22:51:00,78.8,76.6,30.19,WNW,288,0.0,0.0,93,0.00,,,0.00,meteohub,2013-07-16 02:51:00,
2013-07-15 22:56:00,78.8,76.6,30.19,WNW,288,0.0,0.0,93,0.00,,,0.00,meteohub,2013-07-16 02:56:00,
2013-07-15 23:01:00,78.6,76.5,30.19,WNW,288,0.0,0.0,93,0.00,,,0.00,meteohub,2013-07-16 03:01:00,
2013-07-15 23:06:00,78.6,76.8,30.19,WNW,288,0.0,0.0,94,0.00,,,0.00,meteohub,2013-07-16 03:06:00,
2013-07-15 23:11:00,78.6,76.8,30.19,WNW,288,0.0,0.0,94,0.00,,,0.00,meteohub,2013-07-16 03:11:00,
2013-07-15 23:16:00,78.4,76.8,30.19,WNW,288,0.0,0.0,95,0.00,,,0.00,meteohub,2013-07-16 03:16:00,
2013-07-15 23:21:00,78.4,76.8,30.20,WNW,288,0.0,0.0,95,0.00,,,0.00,meteohub,2013-07-16 03:21:00,
2013-07-15 23:26:00,78.4,76.8,30.19,WNW,288,0.0,0.0,95,0.00,,,0.00,meteohub,2013-07-16 03:26:00,
2013-07-15 23:32:00,78.4,76.8,30.19,WNW,288,0.0,0.0,95,0.00,,,0.00,meteohub,2013-07-16 03:32:00,
2013-07-15 23:37:00,78.4,76.8,30.19,WNW,288,0.0,0.0,95,0.00,,,0.00,meteohub,2013-07-16 03:37:00,
2013-07-15 23:42:00,78.4,76.8,30.19,WNW,288,0.0,0.0,95,0.00,,,0.00,meteohub,2013-07-16 03:42:00,
2013-07-15 23:47:00,78.6,77.0,30.19,WNW,288,0.0,0.0,95,0.00,,,0.00,meteohub,2013-07-16 03:47:00,
2013-07-15 23:52:00,78.6,76.8,30.19,WNW,288,0.0,0.0,94,0.00,,,0.00,meteohub,2013-07-16 03:52:00,
2013-07-15 23:57:00,78.4,76.8,30.20,WNW,288,0.0,1.0,95,0.00,,,0.00,meteohub,2013-07-16 03:57:00,